Dewpoint
22 21 19 18 18 23 25 21 17 12 13 12 13 13 10 10 10 11 12 11 11 10 9 9 10 9 9 8 11 17 41 46 47 52 56 58 59 60 60 59 59 60 60 60 59 60 61 61 62 63 63 63 63 64 64 64 63 63 63 63 63 63 64 64 64 64 64 64 63 63 63 62 61 61 61 62 62 62 62 63 64 64 64 64 64 64
27 21 20 22 23 24 26 28 28 24 24 16 13 12 9 10 10 11 12 14 15 20 19 20 13 10 9 11 14 23 39 44 46 50 55 57 58 60 59 59 59 60 59 60 60 61 61 61 62 62 62 63 62 63 64 63 63 62 62 62 62 63 63 64 64 64 64 64 63 63 62 60 61 62 61 61 61 62 63 63 64 64 64 64 64 64
19 19 22 25 26 29 28 28 30 25 24 24 16 14 14 12 14 15 18 18 19 21 17 19 18 18 18 18 18 24 35 43 45 50 54 57 59 58 58 58 59 59 58 59 60 61 61 61 62 62 62 62 63 63 63 63 62 62 62 61 62 62 63 63 64 64 63 62 62 62 60 62 61 62 62 62 63 63 63 63 63 64 64 64 64 64
21 18 21 20 27 25 25 26 25 27 29 23 21 18 15 17 16 13 24 25 24 24 22 20 18 19 20 22 21 23 18 25 41 49 54 57 58 57 58 58 59 58 58 58 59 60 61 61 61 61 62 62 62 62 63 62 62 62 61 61 61 62 62 62 63 63 61 62 61 61 61 61 60 60 61 61 62 62 62 61 61 61 62 63 63 63
20 21 20 22 24 23 23 24 24 22 18 27 26 20 18 17 16 14 16 25 30 27 29 18 17 13 21 16 24 42 47 30 36 52 55 57 58 58 59 59 59 58 58 58 59 59 60 60 61 61 62 62 62 62 62 62 62 62 61 61 61 62 62 62 62 62 61 61 59 59 59 59 59 59 59 60 58 58 60 59 59 60 60 62 62 61
19 21 24 18 21 21 22 19 22 23 19 22 27 24 21 19 18 17 22 21 21 17 27 13 12 15 17 26 25 38 47 45 47 52 55 57 58 58 58 58 58 58 58 59 59 59 60 60 61 62 62 61 62 62 62 62 62 61 61 61 61 61 61 61 61 61 61 59 58 58 58 58 57 58 58 58 58 56 58 58 56 58 59 60 59 59
19 25 21 19 21 21 19 17 19 22 17 17 18 25 22 19 20 20 20 21 16 13 21 25 12 14 19 23 29 43 48 50 50 52 55 57 57 58 58 58 57 58 58 58 59 59 60 61 61 61 61 61 61 62 62 62 61 61 61 61 61 61 61 61 61 60 60 58 58 58 59 58 58 58 57 56 55 56 54 56 56 57 57 58 59 58
15 16 19 21 23 19 20 16 21 20 18 17 25 27 24 22 22 23 22 19 18 27 28 27 17 12 12 21 31 46 49 50 51 53 55 56 57 57 58 57 57 57 58 58 58 59 60 61 61 61 61 61 61 62 62 62 61 61 61 61 61 61 61 61 60 58 58 57 57 57 57 57 57 57 56 55 55 54 56 56 56 56 56 56 57 56
23 20 20 19 21 17 14 14 22 20 18 18 24 24 22 22 23 22 21 21 21 16 11 17 26 14 16 23 35 43 47 49 50 52 54 56 57 57 57 57 57 57 58 58 57 58 59 60 61 61 61 62 62 62 62 61 61 61 61 61 61 61 60 59 59 57 57 57 57 56 56 56 55 55 55 56 56 55 55 55 54 56 55 56 56 56
18 13 14 14 14 14 15 14 15 20 18 17 19 25 23 22 21 21 19 16 19 11 9 14 23 13 16 25 30 39 48 48 50 52 54 55 56 56 56 56 55 57 57 58 58 58 60 60 61 62 62 62 62 62 62 61 61 61 61 61 61 60 59 59 59 57 56 56 56 55 55 54 54 56 55 55 55 55 54 54 53 54 54 54 55 55
17 32 25 13 11 11 13 14 15 18 15 27 21 19 18 18 22 25 21 21 19 8 12 15 26 16 13 23 29 36 41 48 50 51 52 53 54 54 54 55 56 57 57 58 58 59 60 61 61 62 61 62 62 62 62 61 60 61 61 60 60 59 59 59 60 57 55 55 54 54 54 54 54 55 55 54 54 54 53 54 52 53 53 53 53 54
19 18 17 16 21 15 12 11 16 18 18 19 18 18 15 17 22 15 21 19 8 10 15 16 25 19 14 20 30 34 35 49 50 50 51 51 52 53 53 54 56 57 57 58 58 59 60 60 61 61 61 62 62 62 61 60 60 60 60 60 59 59 59 59 59 57 55 54 55 55 55 54 55 55 54 54 54 54 53 53 53 52 52 51 52 53
20 17 16 14 27 15 14 13 15 15 17 18 18 17 14 13 13 9 15 6 6 11 15 23 22 17 18 25 36 40 38 48 50 50 50 51 51 51 52 53 55 57 57 57 58 59 59 59 60 61 61 61 61 61 61 60 60 60 60 60 59 58 58 59 58 56 55 56 56 55 54 54 54 54 54 54 54 54 53 53 52 52 51 51 52 52
18 19 17 14 13 20 14 13 15 13 13 14 14 15 12 7 7 4 11 12 13 15 19 21 24 19 26 32 38 44 44 48 50 50 50 50 51 51 52 53 54 56 57 57 58 58 59 60 60 61 61 61 61 61 61 60 60 60 60 59 59 58 58 58 58 57 56 57 56 54 54 54 54 53 54 54 54 54 54 53 52 51 51 51 52 52
10 11 14 13 13 17 15 13 13 19 13 11 12 11 16 15 12 4 13 6 9 12 18 24 16 12 25 31 44 46 48 50 50 51 51 52 52 52 53 54 54 55 55 57 58 58 59 60 60 61 61 61 61 61 61 60 60 60 60 59 59 58 58 59 58 57 57 57 55 54 53 53 53 53 53 54 55 54 53 53 52 51 51 52 51 52
10 13 15 15 12 14 14 16 15 15 14 19 16 13 12 14 21 7 18 18 18 14 13 22 20 27 33 42 46 48 49 50 51 51 51 51 51 52 53 53 54 54 55 56 57 58 59 60 60 60 60 61 61 61 61 61 61 60 60 59 59 58 58 59 58 57 58 56 54 54 53 53 54 54 54 54 55 54 53 53 52 52 52 52 52 51
13 14 18 19 15 12 11 16 14 11 14 21 12 12 14 19 18 20 19 23 19 19 11 16 30 35 36 40 45 47 48 48 49 49 50 50 51 51 52 53 53 54 55 56 57 58 59 60 60 60 60 60 61 61 61 61 61 60 59 59 58 58 58 58 58 57 57 55 54 54 53 54 54 53 53 54 55 54 53 53 52 52 52 52 52 53
14 14 19 15 13 14 12 13 13 13 16 18 16 15 22 24 26 22 15 18 13 10 15 25 27 29 27 27 40 45 44 45 47 50 50 51 51 51 52 53 54 55 56 56 57 58 59 59 59 59 60 60 60 61 61 61 61 60 59 59 58 58 58 58 57 57 56 54 54 54 54 54 53 53 54 55 55 54 53 53 53 53 52 52 53 53
18 15 16 16 14 13 26 14 12 13 19 16 20 19 17 15 13 19 21 11 10 10 11 21 25 27 27 31 39 43 43 45 47 50 51 51 51 50 52 53 54 55 55 56 57 57 58 58 58 58 59 60 60 61 61 61 61 60 59 57 58 58 58 58 57 57 55 55 55 54 54 54 54 54 54 55 55 54 53 52 53 52 52 52 52 53
27 14 16 20 17 23 28 16 12 21 21 22 21 23 28 23 22 13 16 19 18 11 10 17 24 21 32 36 43 42 44 46 49 50 49 52 52 51 52 53 54 54 55 56 57 57 57 57 57 58 59 59 59 60 60 60 61 60 60 59 58 58 58 57 57 57 56 55 55 54 54 54 54 54 55 55 55 53 52 52 52 52 51 51 52 51
19 18 12 21 22 23 21 25 20 21 16 16 16 19 22 26 33 23 24 18 19 17 13 17 18 24 32 42 45 43 46 47 48 49 49 50 52 52 52 53 54 55 55 55 56 56 56 56 57 58 58 59 59 59 58 59 59 59 59 59 58 57 57 57 57 57 56 55 55 54 54 54 54 54 55 55 54 52 52 52 52 51 51 52 51 50
23 21 19 24 17 24 28 31 24 25 25 26 26 26 21 23 18 14 16 24 24 22 16 16 15 24 35 46 46 43 45 47 48 51 51 51 50 51 52 53 53 53 54 54 55 56 56 56 57 57 58 58 58 58 58 57 57 57 56 57 58 58 57 57 57 57 57 57 57 56 54 54 54 54 54 54 53 52 52 52 52 52 52 51 50 49
27 26 23 17 21 23 23 28 29 32 33 32 32 32 29 27 22 20 12 16 23 26 25 23 26 27 41 47 47 46 48 50 50 50 49 50 50 51 52 53 54 54 54 54 55 55 55 55 56 56 57 57 57 57 57 56 56 56 56 57 58 58 57 58 58 58 57 57 56 56 55 54 54 54 53 53 52 52 52 52 52 52 51 51 50 50
49 22 21 22 27 26 26 27 27 29 31 29 32 35 34 29 29 22 23 26 23 24 21 22 25 28 42 48 48 49 49 49 50 50 50 50 49 51 52 52 53 53 54 54 54 54 55 55 55 55 55 55 54 54 55 56 56 56 56 57 58 58 58 58 58 58 57 57 57 57 56 55 55 54 53 53 53 52 52 52 52 53 52 51 50 50
25 29 22 19 19 21 23 23 22 27 32 31 30 33 35 34 34 31 28 27 24 25 25 23 23 32 42 49 48 48 49 49 49 50 50 49 50 50 51 51 52 53 53 53 54 55 55 55 55 55 55 55 54 55 55 55 55 56 56 57 57 58 58 58 58 58 58 57 57 56 56 55 55 54 54 54 54 53 53 53 53 53 52 51 50 50
30 31 25 17 15 14 13 13 15 20 28 30 34 35 35 33 32 24 17 20 17 21 25 27 29 35 45 47 47 47 48 48 49 49 49 49 49 49 49 49 50 51 51 51 52 53 54 54 55 55 55 56 56 56 56 56 56 56 57 57 58 58 58 58 58 58 57 57 56 56 55 55 55 55 55 55 55 54 54 54 53 53 52 51 50 51
31 34 31 27 21 19 21 24 27 31 31 28 30 35 35 35 34 27 25 23 19 22 28 32 37 38 42 44 45 46 47 46 47 48 47 46 45 45 45 46 45 45 46 46 47 48 49 50 51 52 54 55 55 56 56 57 57 57 56 57 56 56 57 58 58 58 57 57 56 55 55 55 55 56 55 55 55 54 54 54 53 53 52 52 51 51
33 31 35 32 33 30 30 29 30 31 32 33 32 32 35 35 34 32 25 23 28 28 25 36 40 39 40 43 45 45 46 47 47 45 44 43 43 43 43 43 43 42 41 41 41 41 42 42 43 45 48 52 55 55 55 55 56 56 56 56 56 56 56 56 57 57 56 56 56 56 56 56 56 56 55 55 55 55 55 54 53 52 52 52 51 51
32 30 35 34 33 34 34 32 34 33 33 33 33 33 34 36 34 33 33 33 27 22 25 38 40 39 41 44 45 45 45 44 44 42 41 41 40 39 39 39 39 38 38 37 38 38 38 39 40 41 44 47 52 54 55 55 54 54 55 55 55 55 55 56 55 55 56 56 55 55 55 56 56 56 56 55 55 55 55 55 53 53 52 51 50 51
34 31 35 34 32 33 35 34 32 31 31 31 32 33 33 36 36 37 36 36 35 34 37 40 37 34 36 39 41 42 43 41 39 39 40 39 38 38 37 37 36 36 36 36 36 37 37 38 39 40 42 45 49 53 54 55 55 55 55 55 55 55 55 55 55 55 55 54 54 54 54 54 55 55 56 55 55 55 54 54 54 54 53 53 52 50
34 30 36 36 31 30 35 36 33 31 31 30 31 32 33 34 37 37 37 37 38 38 38 37 35 33 37 40 39 40 38 36 35 35 36 38 38 36 35 35 35 36 36 36 36 36 36 37 38 38 39 41 45 50 52 53 54 55 55 55 55 55 56 56 56 56 56 55 54 54 54 54 54 54 54 53 54 54 54 54 53 52 52 53 53 52
34 29 35 33 30 28 35 35 33 33 32 31 31 31 31 31 30 33 34 36 36 35 37 37 34 33 37 39 37 37 35 33 32 33 34 35 36 36 36 36 36 36 36 36 36 37 37 37 37 37 38 37 36 38 40 41 41 42 44 47 51 55 56 56 56 56 56 56 56 55 54 54 54 54 53 53 53 54 54 53 53 53 52 51 52 53
35 32 30 30 30 29 35 35 33 32 29 27 29 31 32 32 34 35 36 36 37 38 36 35 34 36 38 38 34 34 35 33 34 35 33 35 36 36 36 36 36 36 37 37 37 36 36 36 36 37 37 37 37 36 35 36 36 36 36 37 39 42 47 51 54 55 55 56 56 55 55 55 54 54 54 54 54 53 52 52 52 52 52 52 51 51
38 34 32 34 30 30 33 33 32 28 22 24 34 34 36 35 36 34 32 34 36 36 34 35 34 35 35 36 33 33 33 34 35 35 37 37 36 36 37 38 38 37 38 38 37 37 37 37 37 38 37 37 38 39 39 38 37 36 37 36 35 36 37 39 41 44 46 49 52 54 54 55 54 53 53 53 53 53 52 51 51 50 50 50 51 51
33 33 31 32 31 30 30 30 26 20 24 34 35 34 35 34 33 33 33 34 35 35 34 33 33 33 34 35 34 33 34 35 37 37 37 39 39 37 37 38 38 37 37 37 38 38 38 38 38 39 39 38 38 38 39 39 38 37 36 36 35 35 36 36 36 38 39 40 41 42 44 46 50 53 53 53 52 50 50 50 50 49 48 49 51 51
32 32 30 30 29 29 27 23 20 19 33 38 38 35 36 32 32 34 33 33 34 34 34 33 33 34 34 34 35 36 35 36 37 38 36 37 38 38 37 37 38 39 39 39 39 39 39 39 39 40 40 41 39 37 37 37 37 36 36 36 37 37 36 36 36 37 37 38 38 39 39 40 41 44 49 52 51 50 50 50 50 50 50 49 48 47
34 32 31 28 27 25 23 25 27 32 32 32 32 32 32 29 29 29 30 33 33 34 34 33 34 34 35 35 36 36 37 37 34 35 39 41 40 40 40 39 39 39 40 40 40 40 40 40 40 40 40 40 41 40 40 38 35 35 35 35 35 36 37 37 37 37 38 38 38 38 38 38 38 39 39 41 43 44 46 46 46 48 48 48 47 49
34 30 29 27 25 29 28 27 28 27 25 29 32 34 35 33 32 33 33 32 35 33 34 34 34 35 35 36 37 37 38 34 31 32 37 39 40 39 40 40 41 41 41 40 40 40 39 39 40 40 39 39 38 38 38 38 35 34 34 34 34 35 36 36 37 37 38 38 38 38 38 38 38 38 37 37 39 40 41 43 43 44 47 48 47 47
30 32 32 30 27 27 26 26 25 24 26 30 32 34 34 34 34 35 31 30 34 33 34 34 34 34 35 36 37 39 37 32 30 32 37 39 39 39 38 39 38 38 39 40 39 39 38 38 38 35 35 36 34 34 34 35 34 34 34 35 35 35 35 36 36 37 37 37 38 37 38 38 38 37 36 36 37 38 38 39 40 41 42 45 46 46
28 28 29 29 26 24 22 22 22 25 25 30 33 33 32 33 35 28 22 26 33 34 34 34 34 34 35 35 36 33 31 30 30 33 37 37 37 38 39 37 38 38 38 40 39 39 37 35 33 33 33 33 34 34 34 34 35 36 35 35 34 35 35 35 36 36 36 37 37 37 37 37 38 38 37 37 37 37 37 38 38 38 39 40 41 40
25 27 29 25 23 25 26 24 25 25 30 32 32 32 33 34 33 25 20 25 33 33 34 34 35 35 35 34 33 28 29 31 32 34 37 34 32 35 36 37 37 38 38 35 34 36 32 32 32 32 33 33 34 34 35 34 34 34 35 34 34 35 35 36 36 36 36 36 36 36 36 36 37 37 37 37 37 37 37 38 37 37 37 37 38 38
22 23 26 25 25 22 21 21 22 23 28 31 31 33 36 32 27 24 30 33 33 33 34 34 35 34 33 31 30 29 30 32 34 35 31 27 28 29 30 30 30 30 32 34 35 33 32 32 33 33 33 33 34 35 34 34 34 34 34 34 34 35 36 36 35 35 35 35 35 36 36 36 36 37 37 37 37 37 36 36 37 36 36 36 37 38
23 21 22 22 21 22 18 18 18 18 25 32 32 30 33 29 27 32 32 33 34 34 33 33 33 32 31 29 30 31 30 30 30 29 29 30 30 30 29 29 30 30 31 31 31 32 33 32 33 33 33 34 34 35 35 34 34 34 34 34 35 36 36 36 35 35 35 35 35 36 36 36 35 36 37 36 36 35 35 35 35 35 36 37 37 37
26 22 22 22 26 18 17 19 18 26 29 31 31 26 31 33 34 33 31 30 31 31 31 31 31 30 29 29 28 28 28 28 29 29 30 30 30 30 30 30 30 31 31 31 32 32 33 32 33 34 34 34 35 35 35 35 35 35 35 34 36 36 36 35 35 35 35 35 35 35 35 35 36 35 35 35 35 35 34 34 35 35 35 35 36 35
28 25 24 23 27 22 24 27 30 31 31 33 31 31 31 31 32 32 31 31 30 30 31 29 29 29 29 28 28 28 27 28 28 29 29 30 30 30 30 30 30 31 31 31 32 33 32 32 33 33 34 34 35 35 35 35 35 35 35 36 37 36 35 35 35 35 34 34 34 35 35 35 35 35 35 35 35 35 35 34 35 34 34 34 34 34
29 30 29 29 28 30 30 31 32 30 30 30 31 32 30 30 31 31 30 30 30 30 30 28 28 28 28 28 27 28 28 29 29 30 30 30 30 30 31 30 30 31 31 31 32 32 32 33 33 34 34 34 35 35 36 35 35 35 34 35 35 35 35 35 35 35 34 34 34 34 35 34 35 35 35 35 35 35 35 35 35 35 35 34 34 34
27 29 27 27 28 27 25 30 29 29 30 30 29 30 30 31 31 32 32 32 32 31 30 29 29 28 28 28 28 28 28 29 29 30 30 29 29 29 30 30 30 31 31 31 31 32 33 33 34 34 34 34 35 35 35 35 35 35 35 35 35 35 35 35 35 35 34 34 34 34 34 34 35 35 35 35 35 35 35 35 35 35 35 35 34 34
25 29 27 26 26 25 27 30 30 30 31 31 30 29 28 29 30 32 34 36 36 38 37 35 30 28 29 28 28 29 29 30 29 29 29 29 29 29 29 30 30 31 31 32 32 32 32 33 33 33 34 34 33 34 34 34 34 34 34 35 35 35 35 35 34 33 33 33 33 34 34 34 33 34 34 35 34 34 34 34 34 34 35 35 34 34
23 29 22 26 26 27 28 28 28 28 28 29 31 31 29 29 29 30 30 30 31 32 33 33 30 30 29 29 29 29 29 29 29 28 28 28 29 29 29 30 29 29 29 31 31 32 32 32 33 32 32 32 32 33 33 33 33 34 34 34 34 34 34 34 33 34 33 33 33 33 33 33 33 33 33 33 34 33 32 32 33 34 34 33 34 34
28 25 26 27 24 22 23 26 27 25 22 26 28 29 30 29 29 31 29 28 29 29 29 28 28 29 29 29 29 28 28 28 28 28 28 28 29 29 29 29 29 29 29 30 31 32 32 33 31 31 31 30 31 32 33 32 33 33 34 33 33 33 34 34 33 32 33 33 33 33 33 33 32 32 32 32 31 32 33 32 35 34 34 33 35 35
25 26 25 21 23 22 25 27 28 27 26 26 28 30 30 32 31 30 29 28 28 28 27 27 27 27 28 28 29 28 28 28 28 28 28 28 28 28 29 30 30 29 30 31 32 31 31 31 32 31 31 30 32 32 32 33 33 32 33 33 33 32 32 32 34 32 32 33 33 33 33 32 31 31 30 31 31 32 31 31 32 34 35 35 35 35